Home   Weather   Allschwil   Past weeks

Flag for Switzerland Past Weather in Allschwil, Basel-Land, Switzerland — Yesterday and Last 2 Weeks

Now
58 °F

Overcast.


Feels Like: 57 °F
Forecast: 57 / 72 °F
Wind: 6 mph from Southwest

Location: Bale-Mulhouse

Current Time: Jul 25, 2017 at 11:01:59 pm

Latest Report: Jul 25, 2017 at 10:00 pm


Visibility: 16 mi

Pressure: 29.89 "Hg

Humidity: 94%

Dew Point: 56 °F

Location of AllschwilLocation

Past Weather in Allschwil — Graph

°F

Allschwil Temperature Yesterday

Maximum temperature yesterday: 69 °F (at 4:00 pm)
Minimum temperature yesterday: 57 °F (at 2:00 am)
Average temperature yesterday: 62 °F

High & Low Weather Summary for the Past Weeks

 TemperatureHumidityPressure
High92 °F (Jul 19, 2:00 pm)97% (Jul 22, 6:00 am)30.29 "Hg (Jul 22, 6:00 am)
Low51 °F (Jul 16, 2:00 am)31% (Jul 18, 5:00 pm)29.78 "Hg (Jul 21, 5:00 pm)
Average68 °F69%30.01 "Hg
* Reported Jul 10 9:00 pm — Jul 25 9:00 pm, Allschwil. Weather by CustomWeather, © 2017

Note: Actual official high and low records may vary slightly from our data, if they occured in-between our weather recording intervals... More about our weather records

Advertising

Allschwil Weather History for the Previous 24 Hours

Scroll right to see more
 ConditionsComfort  
Time TempWeatherWind HumidityBarometerVisibility
9:00 pm
Tue, Jul 25
58 °FThunderstorms. Low clouds.2 mph94%29.89 "Hg7 mi
8:00 pm58 °FThundershowers. Overcast.13 mph91%29.89 "Hg2 mi
7:00 pm68 °FPartly sunny.10 mph58%29.84 "Hg12 mi
6:00 pm70 °FOvercast.9 mph57%29.84 "Hg12 mi
5:00 pm67 °FOvercast.6 mph58%29.86 "Hg5 mi
4:00 pm68 °FOvercast.14 mph54%29.87 "Hg19 mi
3:00 pm65 °FOvercast.6 mph70%29.88 "Hg19 mi
2:00 pm64 °FOvercast.8 mph67%29.90 "Hg16 mi
1:00 pm65 °FOvercast.13 mph63%29.89 "Hg16 mi
12:00 pm62 °FOvercast.10 mph73%29.91 "Hg16 mi
11:00 am61 °FOvercast.15 mph71%29.91 "Hg16 mi
10:00 am62 °FOvercast.10 mph71%29.91 "Hg16 mi
9:00 am61 °FOvercast.9 mph79%29.90 "Hg16 mi
8:00 am58 °FOvercast.8 mph89%29.91 "Hg16 mi
7:00 am57 °FOvercast.13 mph90%29.90 "Hg12 mi
6:00 am58 °FSprinkles. Overcast.7 mph90%29.91 "Hg6 mi
5:00 am57 °FOvercast.9 mph89%29.91 "Hg12 mi
4:00 am58 °FOvercast.12 mph86%29.91 "Hg37 mi
3:00 am59 °FOvercast.10 mph86%29.92 "Hg37 mi
2:00 am58 °FOvercast.13 mph87%29.93 "Hg37 mi
1:00 am59 °FOvercast.14 mph87%29.92 "Hg34 mi
12:00 am59 °FSprinkles. Overcast.14 mph87%29.92 "Hg12 mi
11:00 pm
Mon, Jul 24
59 °FOvercast.9 mph88%29.92 "Hg12 mi
Weather by CustomWeather, © 2017

See weather overviewHow to use our weather pages